OK1CMJ-5 Weather Reports


time (UTC)temp
C
wind
direction
speed
KPH
gust
KPH
rain 1hr
cm
rain 24hr
cm
rain mn
cm
humidity
%
barometer
mb
20260507004935 9 314 0.0 3.2 0.00 0.46 0.00 99 1010.1
20260507003135 10 311 0.0 3.2 0.00 0.46 0.00 99 1009.8
20260507002235 10 313 0.0 3.2 0.00 0.46 0.00 99 1009.9
20260507000435 10 291 0.0 3.2 0.00 0.46 0.00 99 1010.0
20260506235536 10 292 0.0 3.2 0.00 0.46 0.00 99 1010.0
20260506234635 10 274 0.0 3.2 0.00 0.46 0.00 99 1009.9
20260506233735 10 292 0.0 3.2 0.00 0.46 0.00 99 1009.8
20260506232835 10 305 0.0 3.2 0.00 0.46 0.00 99 1009.6
20260506231935 10 299 0.0 3.2 0.00 0.46 0.00 99 1009.5
20260506231036 10 292 0.0 3.2 0.00 0.46 0.00 99 1009.2
20260506230135 10 314 0.0 4.8 0.00 0.46 0.00 97 1009.4
20260506225236 9 1 0.0 3.2 0.00 0.46 0.00 95 1009.4
20260506223436 9 0 0.0 0.0 0.00 0.46 0.00 92 1009.2
20260506222535 10 0 0.0 0.0 0.00 0.46 0.00 92 1009.2
20260506221636 10 0 0.0 0.0 0.00 0.46 0.00 91 1009.2
20260506215835 10 1 0.0 1.6 0.00 0.46 0.46 90 1009.1
20260506214935 10 1 0.0 1.6 0.00 0.46 0.46 89 1009.2
20260506214035 10 0 0.0 0.0 0.00 0.46 0.46 88 1009.2
20260506213135 11 338 0.0 1.6 0.00 0.46 0.46 88 1009.3
20260506212235 11 1 0.0 3.2 0.00 0.46 0.46 87 1009.2
20260506210435 11 347 0.0 1.6 0.00 0.46 0.46 84 1008.7
20260506205535 11 0 0.0 0.0 0.00 0.46 0.46 83 1008.6
20260506204635 11 0 0.0 0.0 0.03 0.46 0.46 82 1008.6
20260506203736 11 291 0.0 3.2 0.13 0.46 0.46 82 1008.4
20260506202836 11 250 0.0 3.2 0.18 0.46 0.46 81 1008.3
20260506201935 11 225 0.0 1.6 0.20 0.46 0.46 79 1008.2
20260506201036 11 225 0.0 1.6 0.28 0.46 0.46 78 1008.3
20260506195235 11 225 0.0 3.2 0.38 0.46 0.46 74 1008.2
20260506194335 11 303 0.0 3.2 0.36 0.43 0.43 73 1008.5
20260506193435 12 1 0.0 3.2 0.23 0.30 0.30 72 1008.6
20260506192535 12 312 0.0 8.0 0.20 0.28 0.28 71 1008.6
20260506190736 13 313 3.2 8.0 0.13 0.18 0.18 57 1008.6
20260506185835 13 334 1.6 6.4 0.03 0.10 0.10 46 1008.3
20260506184935 14 292 0.0 3.2 0.00 0.05 0.05 41 1007.6
20260506184035 14 292 0.0 3.2 0.00 0.10 0.05 39 1007.2
20260506183135 14 292 0.0 3.2 0.00 0.10 0.05 38 1006.8
20260506182235 14 292 0.0 3.2 0.00 0.30 0.05 39 1006.6
20260506181335 15 314 0.0 4.8 0.00 0.30 0.05 39 1006.6
20260506180435 15 314 1.6 4.8 0.00 0.30 0.05 39 1006.4
20260506174635 15 314 3.2 4.8 0.00 0.30 0.05 39 1006.2
20260506173735 16 319 3.2 6.4 0.00 0.30 0.05 38 1006.2
20260506172835 16 331 3.2 11.3 0.00 0.30 0.05 38 1006.1
20260506171935 16 331 3.2 9.7 0.00 0.30 0.05 38 1006.1
20260506171035 16 1 3.2 8.0 0.00 0.30 0.05 36 1006.2
20260506170135 17 345 3.2 6.4 0.00 0.30 0.05 31 1006.1
20260506165235 18 314 1.6 4.8 0.00 0.30 0.05 29 1005.9
20260506163435 19 11 3.2 6.4 0.00 0.30 0.05 25 1005.7
20260506162535 20 326 3.2 8.0 0.00 0.30 0.05 24 1005.9
20260506161635 20 332 3.2 8.0 0.00 0.30 0.05 25 1006.0
20260506160735 20 317 3.2 9.7 0.00 0.30 0.05 25 1006.0
20260506155836 20 336 4.8 9.7 0.00 0.30 0.05 23 1006.2
20260506154935 20 20 3.2 11.3 0.00 0.30 0.05 24 1006.1
20260506154035 20 337 4.8 9.7 0.00 0.30 0.05 25 1006.3
20260506153136 19 325 1.6 6.4 0.00 0.30 0.05 26 1006.6
20260506152235 18 314 1.6 6.4 0.00 0.30 0.05 30 1006.6
20260506151335 18 319 3.2 11.3 0.00 0.30 0.05 26 1006.6
20260506150435 18 317 6.4 12.9 0.00 0.30 0.05 23 1006.8
20260506145535 18 318 4.8 9.7 0.03 0.30 0.05 26 1006.8
20260506144635 18 315 4.8 9.7 0.03 0.30 0.05 24 1006.9
20260506143735 18 13 4.8 8.0 0.05 0.30 0.05 28 1007.0
20260506142835 18 25 1.6 8.0 0.05 0.30 0.05 34 1007.0
20260506141935 17 1 3.2 6.4 0.05 0.30 0.05 41 1007.4
20260506141035 17 45 3.2 4.8 0.05 0.30 0.05 45 1007.5
20260506140135 16 90 3.2 3.2 0.05 0.30 0.05 43 1007.6
20260506134335 17 90 0.0 3.2 0.03 0.28 0.03 30 1007.9
20260506133435 18 344 0.0 6.4 0.00 0.23 0.00 25 1007.7
20260506132535 18 350 1.6 3.2 0.00 0.23 0.00 23 1007.7
20260506131635 18 1 0.0 3.2 0.00 0.23 0.00 21 1007.6
20260506125835 20 90 0.0 6.4 0.00 0.23 0.00 19 1007.7
20260506124935 20 90 1.6 6.4 0.00 0.23 0.00 19 1007.8
20260506124035 21 129 3.2 6.4 0.00 0.23 0.00 17 1007.9
20260506122235 21 157 3.2 9.7 0.00 0.23 0.00 17 1008.1
20260506121335 21 130 3.2 6.4 0.00 0.23 0.00 14 1008.2
20260506120435 22 144 1.6 6.4 0.00 0.23 0.00 15 1008.2
20260506115535 22 110 3.2 9.7 0.00 0.23 0.00 15 1008.2
20260506111935 21 352 3.2 11.3 0.00 0.23 0.00 17 1008.5
20260506111035 21 110 3.2 6.4 0.00 0.23 0.00 16 1008.5
20260506110135 22 121 3.2 6.4 0.00 0.23 0.00 12 1008.7
20260506104335 24 326 3.2 6.4 0.00 0.23 0.00 11 1008.8
20260506103435 24 262 1.6 6.4 0.00 0.23 0.00 10 1008.8
20260506102535 23 311 1.6 6.4 0.00 0.23 0.00 14 1008.8
20260506101635 22 314 0.0 8.0 0.00 0.23 0.00 16 1009.0
20260506100735 22 311 1.6 6.4 0.00 0.23 0.00 19 1009.2
20260506095835 21 290 0.0 6.4 0.00 0.23 0.00 16 1009.2
20260506094035 22 321 3.2 6.4 0.00 0.23 0.00 17 1009.1
20260506093135 22 318 1.6 11.3 0.00 0.23 0.00 20 1009.1
20260506092235 22 343 3.2 11.3 0.00 0.23 0.00 16 1009.1
20260506091335 21 345 1.6 8.0 0.00 0.23 0.00 20 1009.2
20260506084635 20 323 3.2 6.4 0.00 0.23 0.00 26 1009.1
20260506083735 20 326 1.6 11.3 0.00 0.23 0.00 27 1009.2
20260506081935 18 233 1.6 9.7 0.00 0.23 0.00 32 1009.2
20260506073435 17 295 1.6 12.9 0.00 0.23 0.00 36 1009.2
20260506072535 18 294 0.0 12.9 0.00 0.23 0.00 37 1009.2
20260506071635 17 304 3.2 6.4 0.00 0.23 0.00 40 1009.2
20260506070735 17 259 0.0 11.3 0.00 0.23 0.00 45 1009.2
20260506062235 14 313 3.2 8.0 0.00 0.23 0.00 65 1009.1
20260506061335 13 321 1.6 8.0 0.00 0.23 0.00 67 1009.0
20260506060435 13 349 1.6 6.4 0.00 0.23 0.00 70 1008.8
20260506051035 12 338 0.0 8.0 0.00 0.23 0.00 76 1009.1
20260506044335 12 2 1.6 6.4 0.00 0.23 0.00 76 1009.0
20260506043435 12 277 0.0 11.3 0.00 0.23 0.00 76 1009.0
20260506042535 12 235 1.6 6.4 0.00 0.23 0.00 79 1009.1
20260506041635 12 275 1.6 6.4 0.00 0.23 0.00 84 1008.9
20260506040735 11 314 0.0 4.8 0.00 0.23 0.00 88 1008.8
20260506035835 11 333 0.0 8.0 0.00 0.23 0.00 89 1008.6
20260506034935 11 349 1.6 8.0 0.00 0.23 0.00 89 1008.5
20260506034035 10 349 0.0 8.0 0.00 0.23 0.00 88 1008.7
20260506032235 10 335 0.0 9.7 0.00 0.23 0.00 88 1008.5
20260506031335 10 320 3.2 8.0 0.00 0.23 0.00 87 1008.7
20260506022835 11 341 0.0 4.8 0.00 0.23 0.00 87 1008.6
20260506021035 11 266 3.2 11.3 0.00 0.23 0.00 91 1008.6
20260506020135 11 316 1.6 12.9 0.00 0.23 0.00 92 1008.7
20260506014335 11 349 0.0 6.4 0.00 0.23 0.00 92 1008.8
20260506012535 10 354 1.6 6.4 0.00 0.23 0.00 93 1008.9
20260506011634 10 1 0.0 3.2 0.00 0.23 0.00 93 1008.9